Flag for Cabo Verde Weather past 2 weeks in Santa Maria, Cabo Verde

81 °F

Broken clouds.

Feels Like: 82 °F
Forecast: N/A
Wind: 13 mph from Northeast

Location: Sal

Current Time: Nov 27, 2015 at 2:55:12 PM

Latest Report: Nov 27, 2015 at 2:00 PM

Visibility: 5 mi

Pressure: 29.92 "Hg

Humidity: 58%

Dew point: 64 °F

Location of Santa MariaLocation

Historic Weather in Santa Maria — Graph


Santa Maria temperature yesterday

Maximum temperature yesterday: 82 °F (at 2:00 PM)
Minimum temperature yesterday: 70 °F (at 5:00 AM)
Average temperature yesterday: 75 °F

Past Weeks' High & Low Weather Summary

High86 °F (Nov 12, 2:00 PM)89% (Nov 15, 8:00 PM)30.09 "Hg (Nov 15, 8:00 PM)
Low70 °F (Nov 26, 5:00 AM)43% (Nov 15, 1:00 PM)29.89 "Hg (Nov 12, 3:00 PM)
Average78 °F66%29.98 "Hg
* Reported Nov 12 1:00 PM — Nov 27 1:00 PM, Santa Maria, Weather by CustomWeather, © 2015

Note: Actual official high and low records may vary slightly from our data, if they occured in-between our weather recording intervals... More about our weather records


Santa Maria weather history for previous 24 hours

Time TempWeatherWind HumidityBarometerVisibility
1:00 PM
Fri, Nov 27
79 °FBroken clouds.13 mph61%29.95 "Hg4 mi
12:00 PM77 °FBroken clouds.16 mph65%29.98 "Hg4 mi
11:00 AM77 °FBroken clouds.15 mph61%29.98 "Hg4 mi
10:00 AM77 °FBroken clouds.15 mph61%30.01 "Hg4 mi
9:00 AM75 °FBroken clouds.14 mph69%29.98 "Hg4 mi
8:00 AM73 °FBroken clouds.12 mph74%29.98 "Hg4 mi
7:00 AM72 °FPartly sunny.9 mph78%29.95 "Hg4 mi
6:00 AM72 °FBroken clouds.10 mph78%29.95 "Hg4 mi
5:00 AM72 °FBroken clouds.10 mph78%29.95 "Hg3 mi
4:00 AM72 °FPartly cloudy.10 mph78%29.95 "Hg3 mi
3:00 AM72 °FPartly cloudy.10 mph78%29.98 "Hg3 mi
2:00 AM72 °FPassing clouds.9 mph78%29.98 "Hg3 mi
1:00 AM73 °FPartly cloudy.10 mph74%30.01 "Hg3 mi
12:00 AM73 °FPartly cloudy.10 mph74%30.01 "Hg3 mi
11:00 PM
Thu, Nov 26
73 °FPassing clouds.12 mph74%30.04 "Hg3 mi
10:00 PM73 °FMild.12 mph74%30.04 "HgN/A
9:00 PM73 °FMild.12 mph74%30.04 "HgN/A
8:00 PM73 °FMild.12 mph69%30.01 "HgN/A
7:00 PM75 °FMild.12 mph65%29.98 "HgN/A
6:00 PM75 °FMild.14 mph65%29.98 "HgN/A
5:00 PM77 °FWarm.15 mph65%29.95 "HgN/A
4:00 PM79 °FWarm.13 mph65%29.95 "HgN/A
3:00 PM82 °FHaze.14 mph51%29.95 "Hg3 mi
2:00 PM82 °FClear.15 mph51%29.98 "Hg4 mi
Weather by CustomWeather, © 2015

See weather overviewHow to use our weather pages